N4406F LIRZ-LIBC

Flight info

Callsign N4406F
Flight time N/A
Altitude 21000
Route GITOD Y106 TIBER L995 TEA M736 SOR M620 ARBUM
Aircraft PA34/L-SDFGRY/S

Departure

Time N/A
Airport Perugia San Francesco d'Assisi – Umbria International Airport (LIRZ)

Arrival

Time 2026-04-30 18:50
Airport Crotone Sant'Anna Pythagoras Airport (LIBC)
Time Latitude Longitude Altitude Speed Heading
2026-04-30 17:39 41.26915 13.98643 23169 ft 223 kts 167°
2026-04-30 17:41 41.15271 14.04646 23154 ft 223 kts 168°
2026-04-30 17:42 41.12377 14.06132 23154 ft 223 kts 169°
2026-04-30 17:42 41.08002 14.08375 23151 ft 225 kts 168°
2026-04-30 17:43 41.05082 14.09872 23149 ft 224 kts 169°
2026-04-30 17:44 41.00712 14.12106 23155 ft 224 kts 168°
2026-04-30 17:44 40.96348 14.14338 23140 ft 223 kts 169°
2026-04-30 17:46 40.89056 14.18056 23144 ft 224 kts 169°
2026-04-30 17:47 40.83217 14.21029 23145 ft 223 kts 169°
2026-04-30 17:48 40.77430 14.23969 23137 ft 222 kts 169°
2026-04-30 17:48 40.73071 14.26178 23136 ft 223 kts 169°
2026-04-30 17:49 40.67242 14.29129 23138 ft 223 kts 169°
2026-04-30 17:50 40.61451 14.32057 23128 ft 222 kts 169°
2026-04-30 17:51 40.57171 14.34522 23128 ft 233 kts 146°
2026-04-30 17:52 40.53547 14.38832 23126 ft 234 kts 143°
2026-04-30 17:53 40.47465 14.45863 23129 ft 233 kts 144°
2026-04-30 17:54 40.42553 14.51502 23117 ft 234 kts 144°
2026-04-30 17:55 40.37641 14.57130 23126 ft 233 kts 144°
2026-04-30 17:56 40.32724 14.62752 23115 ft 233 kts 143°
2026-04-30 17:57 40.29021 14.66979 23111 ft 233 kts 145°
2026-04-30 17:58 40.25352 14.71160 23111 ft 231 kts 144°
2026-04-30 17:59 40.20482 14.76700 23099 ft 231 kts 145°
2026-04-30 18:00 40.15619 14.82200 23095 ft 231 kts 144°
2026-04-30 18:00 40.11970 14.86345 23090 ft 231 kts 145°
2026-04-30 18:01 40.09543 14.89097 23087 ft 231 kts 144°
2026-04-30 18:02 40.05904 14.93222 23082 ft 231 kts 144°
2026-04-30 18:02 40.02249 14.97360 23082 ft 231 kts 145°
2026-04-30 18:03 39.98596 15.01489 23102 ft 231 kts 145°
2026-04-30 18:04 39.94936 15.05620 23098 ft 232 kts 145°
2026-04-30 18:05 39.90034 15.11141 23098 ft 232 kts 146°
2026-04-30 18:06 39.85113 15.16674 23090 ft 231 kts 145°
2026-04-30 18:07 39.80207 15.22176 22793 ft 237 kts 145°
2026-04-30 18:08 39.76444 15.26392 22110 ft 242 kts 144°
2026-04-30 18:09 39.71283 15.32164 21283 ft 242 kts 144°
2026-04-30 18:10 39.66201 15.37835 20509 ft 240 kts 144°
2026-04-30 18:11 39.61141 15.43470 19618 ft 239 kts 144°
2026-04-30 18:11 39.57341 15.47694 18964 ft 239 kts 144°
2026-04-30 18:12 39.53571 15.51879 18340 ft 238 kts 143°
2026-04-30 18:13 39.51062 15.54660 17876 ft 239 kts 143°
2026-04-30 18:13 39.47259 15.58871 17165 ft 238 kts 143°
2026-04-30 18:14 39.44751 15.61645 16706 ft 237 kts 143°
2026-04-30 18:15 39.40990 15.65798 16019 ft 235 kts 143°
2026-04-30 18:15 39.37287 15.69882 15334 ft 233 kts 143°
2026-04-30 18:16 39.34821 15.72598 14879 ft 232 kts 142°
2026-04-30 18:16 39.32351 15.75317 14435 ft 231 kts 142°
2026-04-30 18:17 39.31126 15.76665 14216 ft 230 kts 142°
2026-04-30 18:17 39.29918 15.77993 13999 ft 229 kts 142°
2026-04-30 18:17 39.27462 15.80575 13552 ft 224 kts 154°
2026-04-30 18:18 39.26203 15.81758 13316 ft 226 kts 136°
2026-04-30 18:18 39.25091 15.83243 13099 ft 225 kts 135°
2026-04-30 18:18 39.23993 15.84684 12887 ft 223 kts 136°
2026-04-30 18:18 39.22894 15.86094 12701 ft 221 kts 137°
2026-04-30 18:19 39.21804 15.87473 12529 ft 219 kts 137°
2026-04-30 18:19 39.20719 15.88835 12358 ft 218 kts 137°
2026-04-30 18:19 39.19622 15.90206 12183 ft 217 kts 137°
2026-04-30 18:19 39.18547 15.91545 12012 ft 216 kts 137°
2026-04-30 18:20 39.17461 15.92897 11842 ft 216 kts 137°
2026-04-30 18:20 39.16380 15.94241 11673 ft 215 kts 137°
2026-04-30 18:20 39.15303 15.95578 11508 ft 215 kts 137°
2026-04-30 18:20 39.14226 15.96916 11334 ft 215 kts 137°
2026-04-30 18:21 39.13152 15.98249 11167 ft 214 kts 137°
2026-04-30 18:21 39.12065 15.99595 10996 ft 214 kts 137°
2026-04-30 18:21 39.10992 16.00925 10829 ft 213 kts 137°
2026-04-30 18:21 39.09933 16.02238 10665 ft 212 kts 137°
2026-04-30 18:22 39.08877 16.03546 10506 ft 211 kts 137°
2026-04-30 18:22 39.06755 16.06171 10169 ft 209 kts 137°
2026-04-30 18:22 39.05706 16.07469 10004 ft 209 kts 137°
2026-04-30 18:23 39.04670 16.08749 9840 ft 208 kts 138°
2026-04-30 18:23 39.03616 16.10051 9669 ft 208 kts 138°
2026-04-30 18:23 39.02566 16.11348 9510 ft 208 kts 137°
2026-04-30 18:23 39.01534 16.12623 9355 ft 207 kts 138°
2026-04-30 18:24 38.99461 16.15179 9045 ft 205 kts 137°
2026-04-30 18:24 38.98426 16.16456 8919 ft 203 kts 138°
2026-04-30 18:24 38.97410 16.17708 8789 ft 201 kts 138°
2026-04-30 18:25 38.96401 16.18951 8668 ft 200 kts 138°
2026-04-30 18:25 38.94395 16.21420 8409 ft 199 kts 137°
2026-04-30 18:25 38.93404 16.22639 8288 ft 198 kts 137°
2026-04-30 18:26 38.91415 16.25085 8042 ft 197 kts 137°
2026-04-30 18:26 38.90439 16.26310 7919 ft 197 kts 132°
2026-04-30 18:26 38.89900 16.27925 7769 ft 195 kts 99°
2026-04-30 18:27 38.89394 16.31333 7535 ft 193 kts 99°
2026-04-30 18:27 38.89115 16.33021 7416 ft 192 kts 100°
2026-04-30 18:28 38.88528 16.36364 7191 ft 190 kts 101°
2026-04-30 18:28 38.88231 16.38013 7077 ft 190 kts 101°
2026-04-30 18:28 38.87624 16.41325 6846 ft 189 kts 101°
2026-04-30 18:29 38.87322 16.42967 6724 ft 189 kts 101°
2026-04-30 18:29 38.86412 16.47886 6376 ft 187 kts 101°
2026-04-30 18:30 38.85803 16.51166 6141 ft 186 kts 101°
2026-04-30 18:30 38.85204 16.54383 5908 ft 184 kts 101°
2026-04-30 18:31 38.84910 16.55963 5790 ft 183 kts 101°
2026-04-30 18:31 38.84323 16.59113 5557 ft 181 kts 100°
2026-04-30 18:32 38.83739 16.62241 5320 ft 179 kts 100°
2026-04-30 18:32 38.83449 16.63790 5208 ft 179 kts 100°
2026-04-30 18:32 38.82861 16.66928 4973 ft 178 kts 99°
2026-04-30 18:33 38.82571 16.68474 4853 ft 177 kts 99°
2026-04-30 18:33 38.82011 16.71455 4595 ft 166 kts 99°
2026-04-30 18:33 38.81743 16.72881 4459 ft 163 kts 98°
2026-04-30 18:34 38.81478 16.74292 4317 ft 161 kts 98°
2026-04-30 18:34 38.80954 16.77078 4030 ft 159 kts 97°
2026-04-30 18:34 38.80698 16.78442 3888 ft 158 kts 98°
2026-04-30 18:35 38.80441 16.79804 3749 ft 157 kts 97°
2026-04-30 18:35 38.80186 16.81159 3608 ft 156 kts 97°
2026-04-30 18:35 38.79930 16.82508 3494 ft 154 kts 96°
2026-04-30 18:36 38.79431 16.85145 3316 ft 149 kts 95°
2026-04-30 18:36 38.79190 16.86421 3231 ft 148 kts 95°
2026-04-30 18:36 38.78704 16.88995 3061 ft 148 kts 95°
2026-04-30 18:37 38.78463 16.90269 2974 ft 147 kts 94°
2026-04-30 18:37 38.78277 16.91536 2874 ft 140 kts 79°
2026-04-30 18:37 38.78440 16.92739 2781 ft 136 kts 70°
2026-04-30 18:37 38.78645 16.93934 2694 ft 135 kts 69°
2026-04-30 18:38 38.78867 16.95106 2607 ft 134 kts 68°
2026-04-30 18:38 38.79098 16.96259 2546 ft 133 kts 68°
2026-04-30 18:38 38.79298 16.97421 2483 ft 134 kts 72°
2026-04-30 18:38 38.79422 16.98613 2417 ft 135 kts 74°
2026-04-30 18:39 38.79538 16.99808 2353 ft 135 kts 73°
2026-04-30 18:39 38.79650 17.00997 2337 ft 132 kts 73°
2026-04-30 18:39 38.79754 17.02164 2339 ft 130 kts 74°
2026-04-30 18:39 38.79852 17.03307 2340 ft 128 kts 74°
2026-04-30 18:40 38.79953 17.04447 2340 ft 128 kts 73°
2026-04-30 18:40 38.80042 17.05527 2338 ft 120 kts 73°
2026-04-30 18:40 38.80124 17.06614 2340 ft 122 kts 74°
2026-04-30 18:40 38.80211 17.07720 2342 ft 124 kts 73°
2026-04-30 18:41 38.80298 17.08819 2340 ft 124 kts 74°
2026-04-30 18:41 38.80453 17.09890 2331 ft 117 kts 55°
2026-04-30 18:41 38.81044 17.10489 2317 ft 110 kts 12°
2026-04-30 18:41 38.81802 17.10484 2323 ft 105 kts 357°
2026-04-30 18:42 38.82497 17.10401 2291 ft 95 kts 356°
2026-04-30 18:42 38.83503 17.10280 2204 ft 91 kts 356°
2026-04-30 18:42 38.84139 17.10204 2139 ft 90 kts 356°
2026-04-30 18:45 38.89697 17.10352 2100 ft 74 kts 354°
2026-04-30 18:45 38.90219 17.10243 2117 ft 76 kts 355°
2026-04-30 18:45 38.90713 17.10175 2151 ft 70 kts 356°
2026-04-30 18:46 38.91220 17.10113 2136 ft 74 kts 355°
2026-04-30 18:46 38.91727 17.10016 2099 ft 73 kts 353°
2026-04-30 18:46 38.92239 17.09891 1949 ft 80 kts 353°
2026-04-30 18:46 38.92783 17.09791 1908 ft 74 kts 353°
2026-04-30 18:47 38.93290 17.09614 1799 ft 74 kts 352°
2026-04-30 18:47 38.93776 17.09494 1745 ft 68 kts 352°
2026-04-30 18:47 38.94245 17.09387 1595 ft 72 kts 354°
2026-04-30 18:47 38.94731 17.09273 1427 ft 71 kts 351°
2026-04-30 18:48 38.95232 17.09143 1213 ft 73 kts 351°
2026-04-30 18:48 38.95728 17.09016 1125 ft 71 kts 351°
2026-04-30 18:48 38.96223 17.08892 1051 ft 71 kts 352°
2026-04-30 18:48 38.96717 17.08767 936 ft 74 kts 349°
2026-04-30 18:49 38.97225 17.08636 875 ft 73 kts 351°
2026-04-30 18:49 38.97730 17.08507 796 ft 75 kts 350°
2026-04-30 18:49 38.98248 17.08389 715 ft 75 kts 351°
2026-04-30 18:49 38.98765 17.08257 577 ft 78 kts 349°
2026-04-30 18:50 38.99279 17.08119 518 ft 65 kts 348°
2026-04-30 18:50 38.99627 17.08027 521 ft 28 kts 348°
2026-04-30 18:50 38.99670 17.08016 521 ft 3 kts 328°
2026-04-30 18:50 38.99656 17.07952 521 ft 0 kts 246°
2026-04-30 18:51 38.99655 17.07950 521 ft 0 kts 246°
2026-04-30 18:51 38.99645 17.07915 521 ft 8 kts 252°
2026-04-30 18:52 38.99624 17.07844 521 ft 8 kts 240°
2026-04-30 18:52 38.99569 17.07830 521 ft 9 kts 185°
2026-04-30 18:52 38.99555 17.07765 521 ft 5 kts 295°
2026-04-30 18:52 38.99561 17.07760 521 ft 0 kts 353°